Overview Statistics Trail Chart Weather Telemetry Raw packets
 

This is the latest recevied weather packets stored in our database for station/object KCDH. If no packets are shown the sender has not sent any weather packets the latest 10 day(s).

<< 1 2 3 4 >>
Time Temp. Humidity Pressure Rain* Wind** Luminosity Snow
1788576805 30° C 58% 1012.9 hPa - - - -
1788576204 30° C 58% 1012.9 hPa - - - -
1788575606 30.56° C 55% 1012.5 hPa - - - -
1788575004 30.56° C 55% 1012.5 hPa - - - -
1788574405 30.56° C 55% 1012.2 hPa - - - -
1788573805 30.56° C 55% 1012.2 hPa - - - -
1788573206 30° C 58% 1012.2 hPa - - - -
1788572606 30° C 58% 1012.2 hPa - - - -
1788572008 30.56° C 55% 1011.9 hPa - - - -
1788571406 30.56° C 55% 1011.9 hPa - - - -
1788570803 31.67° C 52% 1011.9 hPa - - - -
1788570208 31.67° C 52% 1011.9 hPa - - - -
1788569605 32.78° C 49% 1011.9 hPa - - - -
1788569005 32.78° C 49% 1011.9 hPa - - - -
1788568405 33.89° C 46% 1011.9 hPa - - - -
1788567810 33.89° C 46% 1011.9 hPa - - - -
1788567206 35° C 47% 1011.5 hPa - - - -
1788566607 35° C 47% 1011.5 hPa - - - -
1788566008 35.56° C 41% 1011.5 hPa - - - -
1788565406 35.56° C 41% 1011.5 hPa - - - -
1788564807 36.67° C 39% 1011.5 hPa - - - -
1788564206 36.67° C 39% 1011.5 hPa - - - -
1788563609 36.67° C 39% 1011.2 hPa - - - -
1788563008 36.67° C 39% 1011.2 hPa - - - -
1788562408 36.67° C 37% 1011.2 hPa - - - -

* Rain since midnight (hover to see other rain measurements)
** Current wind speed in m/s (hover to see current wind gust speed)